Regional Weather Roundup
Issued by NWS Cleveland, OH

Home | Current Version | Previous Version | Text Only | Print | Product List | Glossary Off
Versions: 1 2 3 4 5 6 7 8 9 10 11 12 13 14 15 16 17 18 19 20 21 22 23 24 25 26 27 28 29 30 31 32 33 34 35 36 37 38 39 40 41 42 43 44 45 46 47 48 49 50

308
ASUS41 KCLE 231112
RWRCLE
OHIO REGIONAL WEATHER ROUNDUP
NATIONAL WEATHER SERVICE WILMINGTON, OH
700 AM EDT THU MAR 23 2017

NOTE: "FAIR" INDICATES FEW OR NO CLOUDS BELOW 12,000 FEET WITH NO
SIGNIFICANT WEATHER AND/OR OBSTRUCTIONS TO VISIBILITY.

OHZ001>008-015>018-024>027-034-035-043-044-231200-
   NORTHWEST OHIO

CITY           SKY/WX    TMP DP  RH WIND       PRES   REMARKS
DEFIANCE       FAIR      20  14  77 E6        30.51S WCI  12
FINDLAY        FAIR      21  13  71 SE6       30.50S WCI  13
TOLEDO EXPRESS FAIR      21  14  74 SE3       30.52R
TOLEDO EXEC    FAIR      21  15  78 SE5       30.53S WCI  15
LIMA           FAIR      21  15  78 E9        30.48S WCI  11
$$

OHZ009>014-019>023-028>033-038-089-231200-
   NORTHEAST OHIO

CITY           SKY/WX    TMP DP  RH WIND       PRES   REMARKS
CLE-HOPKINS    FAIR      19  12  74 SE5       30.56F WCI  12
CLE-LAKEFRONT  FAIR      24  15  68 SE6       30.54F WCI  17
CUY CO. ARPT   CLEAR     19  16  86 SE5       30.54  WCI  13
LORAIN-ELYRIA  FAIR      18  12  77 S7        30.53F WCI   9
ASHTABULA      FAIR      17  14  88 CALM      30.55S
AKRON-CANTON   FAIR      20  10  65 SE7       30.52S WCI  11
WOOSTER        FAIR      18  13  80 SE5       30.51F WCI  11
MANSFIELD      FAIR      20  12  71 SE9       30.49S WCI   9
YOUNGSTOWN     FAIR      15  12  88 SE5       30.53R WCI   8
$$

OHZ042-051>053-060>062-070>072-077>081-231200-
  SOUTHWEST OHIO

CITY           SKY/WX    TMP DP  RH WIND       PRES   REMARKS
CINC-COVINGTON MOCLDY    29  17  61 E8        30.43R WCI  21
CINC-LUNKEN    FAIR      27  18  69 NE6       30.48R WCI  20
HAMILTON       FAIR      25  18  74 E3        30.48R
DAYTON         FAIR      24  15  68 E10       30.47R WCI  14
WRIGHT-PAT AFB FAIR      25  15  66 E7        30.47S WCI  17
DAYTON GENERAL FAIR      26  16  65 E10       30.44S WCI  16
WILMINGTON     FAIR      24  16  71 E10       30.44F WCI  14
$$

OHZ036-037-039>041-045>050-054>059-063>069-073>076-082>088-231200-
  CENTRAL AND SOUTHEAST OHIO

CITY           SKY/WX    TMP DP  RH WIND       PRES   REMARKS
COLUMBUS       FAIR      24  11  57 E9        30.50F WCI  14
OSU AIRPORT    FAIR      21  13  71 E9        30.49F WCI  11
BOLTON FIELD   FAIR      24  14  65 E6        30.50S WCI  17
RICKENBACK AFB FAIR      23  14  69 E10       30.49F WCI  12
NEWARK         FAIR      22  11  62 NE3       30.51F
MARION         FAIR      20  11  68 SE7       30.50S WCI  11
LANCASTER      FAIR      25  13  60 E8        30.51F WCI  16
ZANESVILLE     FAIR      22   9  57 E6        30.52F WCI  14
NEW PHILLY     FAIR      18  13  80 CALM      30.55F
$$




USA.gov is the U.S. government's official web portal to all federal, state and local government web resources and services.